Regional Weather Roundup
Issued by NWS

Home | Current Version | Previous Version | Text Only | Print | Product List | Glossary Off
Versions: 1 2 3 4 5 6 7 8 9 10 11 12 13 14 15 16 17 18 19 20 21 22 23 24 25 26 27 28 29 30 31 32 33 34 35 36 37 38 39 40 41 42 43 44 45 46 47 48 49 50

000
ASUS45 KPSR 290410
RWRAZ

ARIZONA HOURLY REGIONAL WEATHER ROUNDUP
NATIONAL WEATHER SERVICE PHOENIX AZ
900 PM MST TUE JUL 28 2015

NOTE: FAIR INDICATES FEW OR NO CLOUDS BELOW 12,000 FEET WITH NO
SIGNIFICANT WEATHER AND/OR OBSTRUCTIONS TO VISIBILITY.

AZZ001>003-036-290500-
NORTHWEST ARIZONA

CITY           SKY/WX    TMP DP  RH WIND       PRES   REMARKS
BULLHEAD CITY  CLEAR    100  39  12 CALM      29.77R
KINGMAN        CLEAR     79  31  17 S9        30.01R
$$

AZZ004>008-015-016-018-290500-
NORTH CENTRAL ARIZONA

CITY           SKY/WX    TMP DP  RH WIND       PRES   REMARKS
GRAND CANYON   CLEAR     58  25  28 CALM      30.26R
WILLIAMS       MOCLDY    75  30  19 SW8       30.33R
PRESCOTT       MOCLDY    80  38  22 SW3       30.14R
FLAGSTAFF      MOCLDY    70  39  32 CALM      30.30R
PAYSON         CLOUDY    77  52  41 VRB5      30.19R
PAGE           CLEAR     87  27  11 W6        30.04R
$$

AZZ009>014-017-290500-
NORTHEAST ARIZONA

CITY           SKY/WX    TMP DP  RH WIND       PRES   REMARKS
WINSLOW        CLOUDY    81  51  35 S18       30.11R
SAINT JOHNS    CLOUDY    74  52  46 S9        30.20R
WINDOW ROCK    CLOUDY    77  45  32 S13G21    30.26R
SHOW LOW       CLOUDY    66  50  55 S12       30.26R
$$

AZZ023-290500-
GREATER PHOENIX AREA

CITY           SKY/WX    TMP DP  RH WIND       PRES   REMARKS
PHOENIX        CLOUDY   101  55  21 S8        29.79R
LUKE AFB       CLOUDY   102  55  21 SW10      29.78R HX 101
DEER VALLEY    CLOUDY    99  54  22 S7        29.81R
SCOTTSDALE     CLOUDY    99  54  22 S3        29.84R
MESA-GATEWAY   MOCLDY    91  63  38 S21G31    29.87R BLWGDUST
CHANDLER       MOCLDY    93  63  36 SE17G35   29.84R BLWGDUST
$$

AZZ027-028-290500-
SOUTHWEST MARICOPA COUNTY AND PINAL COUNTY

CITY           SKY/WX    TMP DP  RH WIND       PRES   REMARKS
CASA GRANDE    CLOUDY    90  63  40 S20G28    29.88R
GILA BEND      MOCLDY    96  63  33 SW18G25   29.80R
$$

AZZ503-504-507>509-290500-
SOUTHEAST ARIZONA

CITY           SKY/WX    TMP DP  RH WIND       PRES   REMARKS
TUCSON         CLOUDY    73  67  81 S18       30.04S
DAVIS-MONTHAN  CLOUDY    71  66  84 SE17      30.04R
NOGALES        LGT RAIN  68  65  90 CALM      30.15S
SIERRA VISTA   CLOUDY    67  63  86 NW14      30.19R
DOUGLAS          N/A    N/A N/A N/A MISG      30.12R
SAFFORD        CLOUDY    90  54  29 NW12      29.97R
$$

AZZ020-021-025-026-031-290500-
SOUTHWEST ARIZONA

CITY           SKY/WX    TMP DP  RH WIND       PRES   REMARKS
YUMA           PTCLDY    97  65  34 S9        29.76R
$$

CAZ031-033-041-043-047-048-061-290500-
SOUTHERN CALIFORNIA

CITY           SKY/WX    TMP DP  RH WIND       PRES   REMARKS
DOWNTOWN L.A.  CLEAR     70  64  81 W5        29.87R
L.A. AIRPORT   PTCLDY    69  65  86 W10       29.88R
SAN DIEGO      PTCLDY    70  61  73 SW5       29.91R
BURBANK        CLEAR     75  59  57 VRB6      29.87R
ONTARIO        CLEAR     76  62  62 SW8       29.88R
RIVERSIDE      CLEAR     76  62  62 W6        29.88R
PALM SPRINGS   CLEAR     98  53  22 NW6       29.78R
EL CENTRO NAS  PTCLDY    96  60  30 SE12      29.75R
IMPERIAL       CLEAR     98  58  26 SE12      29.73R
BLYTHE         CLEAR    102  59  24 S9        29.75R HX 102
NEEDLES        CLEAR    100  38  11 W9        29.79R
$$

NVZ020-UTZ003-290500-
SOUTHERN NEVADA-UTAH

CITY           SKY/WX    TMP DP  RH WIND       PRES   REMARKS
LAS VEGAS      CLEAR     97  26   8 E6        29.84R
SALT LAKE CITY CLEAR     68  37  32 N6        30.22R
$$

NMZ009-TXZ055-290500-
NEW MEXICO-WEST TEXAS

CITY           SKY/WX    TMP DP  RH WIND       PRES   REMARKS
ALBUQUERQUE    CLOUDY    79  51  37 E17       30.19R
EL PASO        CLOUDY    84  57  39 N21       30.06R THUNDER
$$


........................KEY........................
SKY/WX - SKY CONDITION/WEATHER
TMP    - TEMPERATURE IN FAHRENHEIT
DP     - DEW POINT IN FAHRENHEIT
RH     - RELATIVE HUMIDITY IN PERCENT
WIND   - DIRECTION AND SPEED IN MILES PER HOUR (MPH)
VRB    - VARIABLE WIND DIRECTION
PRES   - MEAN SEA LEVEL PRESSURE IN INCHES OF MERCURY
         F - FALLING PRESSURE   R - RISING PRESSURE
         S - STEADY PRESSURE
VSB    - VISIBILITY IN MILES
HX     - HEAT INDEX IN FAHRENHEIT
WCI    - WIND CHILL INDEX IN FAHRENHEIT
TC     - TEMPERATURE IN CELSIUS WHICH IS ALSO KNOWN AS
         TEMPERATURE IN CENTIGRADE
AFB    - AIR FORCE BASE
         LUKE AFB IS LUKE AIR FORCE BASE
         DAVIS-MONTHAN IS DAVIS-MONTHAN AIR FORCE BASE
NAS    - NAVAL AIR STATION
         EL CENTRO NAS IS EL CENTRO NAVAL AIR STATION
N/A    - NOT AVAILABLE



USA.gov is the U.S. government's official web portal to all federal, state and local government web resources and services.